Location: Gleizolles
(44.4833°N, 6.7667°E)
Time: 01:00:14
(UTC+00:00)

Explorer 11/Cluster Stage 4 - All Passes

Search period start: 13 June 2024 00:00
Search period end: 23 June 2024 00:00
Orbit: 465 x 1217 km, 28.8° (Epoch: 12 June)

Date Brightness Start Highest point End Pass type
(mag) Time Alt. Az. Time Alt. Az. Time Alt. Az.
13 Jun - 01:10:19 10° SSW 01:11:36 11° S 01:12:50 10° SSE visible
14 Jun - 00:51:50 10° SSW 00:53:57 12° S 00:55:55 10° SSE visible
14 Jun - 22:48:14 10° S 22:49:04 10° SSE 22:49:53 10° SSE night (unlit)
15 Jun - 00:33:31 10° SSW 00:36:16 14° S 00:38:47 10° SSE night (unlit)
15 Jun - 22:29:00 10° S 22:31:19 12° SSE 22:33:30 10° SE night (unlit)
16 Jun - 00:15:16 10° SW 00:18:33 15° S 00:21:32 10° SSE night (unlit)
16 Jun - 02:04:34 10° SSW 02:05:33 11° SSW 02:06:30 10° S visible
16 Jun - 22:10:20 10° SSW 22:13:30 14° SSE 22:16:28 10° SE night (unlit)
16 Jun - 23:57:03 10° SW 00:00:49 16° S 00:04:11 10° SE night (unlit)
17 Jun - 01:46:17 10° SW 01:47:51 11° SSW 01:49:19 10° S visible
17 Jun - 21:51:50 10° SSW 21:55:41 15° SSE 21:59:14 10° SE visible
17 Jun - 23:38:51 10° SW 23:43:03 18° S 23:46:47 10° SE night (unlit)
18 Jun - 01:28:07 10° SW 01:30:06 12° SSW 01:31:59 10° S night (unlit)
18 Jun - 21:33:26 10° SSW 21:37:49 17° S 21:41:52 10° SE visible
18 Jun - 23:20:39 10° SW 23:25:14 19° S 23:29:20 10° SE visible
19 Jun - 01:09:58 10° SW 01:12:20 12° SSW 01:14:32 10° S night (unlit)
19 Jun - 21:15:06 10° SSW 21:19:56 18° S 21:24:23 10° SE visible
19 Jun - 23:02:28 10° SW 23:07:24 20° S 23:11:48 10° SE visible
20 Jun - 00:51:51 10° SW 00:54:32 13° SSW 00:57:02 10° S night (unlit)
20 Jun - 19:13:04 10° SSE 19:14:33 11° SSE 19:16:02 10° SE daylight
20 Jun - 20:56:49 10° SSW 21:02:00 19° S 21:06:50 10° SE visible
20 Jun - 22:44:18 10° SW 22:49:32 21° S 22:54:13 10° SE visible
21 Jun - 00:33:45 10° SW 00:36:42 13° SSW 00:39:27 10° S night (unlit)
21 Jun - 18:54:05 10° S 18:56:35 12° SSE 18:59:04 10° SE daylight
21 Jun - 20:38:35 10° SW 20:44:03 21° S 20:49:12 10° SE visible
21 Jun - 22:26:09 10° SW 22:31:37 22° S 22:36:34 10° SE visible
22 Jun - 00:15:39 10° SW 00:18:51 14° SSW 00:21:48 10° S night (unlit)
22 Jun - 18:35:30 10° S 18:38:36 13° SSE 18:41:41 10° SE daylight
22 Jun - 20:20:24 10° SW 20:26:05 22° S 20:31:30 10° SE visible
22 Jun - 22:08:01 10° SW 22:13:41 22° S 22:18:52 10° SE visible
